Location: Équennes
(49.7375°N, 1.9622°E)
Time: 17:48:21
(UTC+00:00)

Cosmos 2278 - Pass Details

Date: 04 October 2023
Orbit: 838 x 853 km, 71.1° (Epoch: 08 December)

Event Time Altitude Azimuth Distance (km) Brightness Sun altitude
Rises 23:37:04 0° 333° (NNW) 3,429 7.5 -44.8°
Reaches altitude 10° 23:39:42 10° 341° (NNW) 2,491 6.7 -44.8°
Enters shadow 23:40:27 14° 344° (NNW) 2,234 6.4 -44.8°
